TimeEDT,TemperatureF,Dew PointF,Humidity,Sea Level PressureIn,VisibilityMPH,Wind Direction,Wind SpeedMPH,Gust SpeedMPH,PrecipitationIn,Events,Conditions,WindDirDegrees,DateUTC
12:15 AM,77.0,73.4,89,30.13,10.0,Calm,Calm,-,N/A,,Clear,0,2013-06-22 04:15:00
12:35 AM,77.0,75.2,94,30.13,10.0,Calm,Calm,-,N/A,,Clear,0,2013-06-22 04:35:00
12:55 AM,77.0,75.2,94,30.13,10.0,Calm,Calm,-,N/A,,Clear,0,2013-06-22 04:55:00
1:15 AM,77.0,73.4,89,30.13,7.0,Calm,Calm,-,N/A,,Clear,0,2013-06-22 05:15:00
1:35 AM,77.0,73.4,89,30.13,5.0,Calm,Calm,-,N/A,,Clear,0,2013-06-22 05:35:00
1:55 AM,77.0,75.2,94,30.13,7.0,Calm,Calm,-,N/A,,Clear,0,2013-06-22 05:55:00
2:15 AM,77.0,75.2,94,30.12,7.0,Calm,Calm,-,N/A,,Clear,0,2013-06-22 06:15:00
2:35 AM,77.0,73.4,89,30.11,2.0,Calm,Calm,-,N/A,,Scattered Clouds,0,2013-06-22 06:35:00
2:55 AM,75.2,73.4,94,30.11,1.2,Calm,Calm,-,N/A,,Scattered Clouds,0,2013-06-22 06:55:00
3:15 AM,75.2,73.4,94,30.11,1.0,Calm,Calm,-,N/A,,Overcast,0,2013-06-22 07:15:00
3:35 AM,75.2,73.4,94,30.11,2.0,Calm,Calm,-,N/A,,Overcast,0,2013-06-22 07:35:00
3:55 AM,75.2,73.4,94,30.11,1.2,Calm,Calm,-,N/A,,Scattered Clouds,0,2013-06-22 07:55:00
4:15 AM,75.2,73.4,94,30.11,0.8,Calm,Calm,-,N/A,,Unknown,0,2013-06-22 08:15:00
4:35 AM,75.2,73.4,94,30.11,0.8,Calm,Calm,-,N/A,,Mostly Cloudy,0,2013-06-22 08:35:00
4:55 AM,75.2,73.4,94,30.10,5.0,Calm,Calm,-,N/A,,Mostly Cloudy,0,2013-06-22 08:55:00
5:15 AM,73.4,73.4,100,30.11,0.8,Calm,Calm,-,N/A,,Mostly Cloudy,0,2013-06-22 09:15:00
5:35 AM,75.2,73.4,94,30.11,7.0,Calm,Calm,-,N/A,,Mostly Cloudy,0,2013-06-22 09:35:00
5:55 AM,75.2,73.4,94,30.11,4.0,Calm,Calm,-,N/A,,Scattered Clouds,0,2013-06-22 09:55:00
6:15 AM,73.4,73.4,100,30.12,0.5,Calm,Calm,-,N/A,,Mostly Cloudy,0,2013-06-22 10:15:00
6:35 AM,77.0,75.2,94,30.12,7.0,Calm,Calm,-,N/A,,Mostly Cloudy,0,2013-06-22 10:35:00
6:55 AM,77.0,75.2,94,30.12,7.0,Calm,Calm,-,N/A,,Mostly Cloudy,0,2013-06-22 10:55:00
7:15 AM,77.0,73.4,89,30.13,7.0,Calm,Calm,-,N/A,,Clear,0,2013-06-22 11:15:00
7:35 AM,77.0,75.2,94,30.13,10.0,Calm,Calm,-,N/A,,Clear,0,2013-06-22 11:35:00
7:55 AM,77.0,77.0,100,30.14,10.0,Calm,Calm,-,N/A,,Mostly Cloudy,0,2013-06-22 11:55:00
8:15 AM,78.8,77.0,94,30.14,10.0,Calm,Calm,-,N/A,,Mostly Cloudy,0,2013-06-22 12:15:00
8:35 AM,78.8,77.0,94,30.14,10.0,Calm,Calm,-,N/A,,Scattered Clouds,0,2013-06-22 12:35:00
8:55 AM,80.6,77.0,89,30.15,10.0,Calm,Calm,-,N/A,,Scattered Clouds,0,2013-06-22 12:55:00
9:15 AM,80.6,77.0,89,30.16,10.0,North,3.5,-,N/A,,Mostly Cloudy,360,2013-06-22 13:15:00
9:35 AM,80.6,77.0,89,30.15,10.0,North,3.5,-,N/A,,Scattered Clouds,360,2013-06-22 13:35:00
9:55 AM,80.6,77.0,89,30.15,10.0,North,3.5,-,N/A,,Clear,360,2013-06-22 13:55:00
10:15 AM,82.4,77.0,84,30.16,10.0,Calm,Calm,-,N/A,,Clear,0,2013-06-22 14:15:00
10:35 AM,82.4,77.0,84,30.16,10.0,NNE,4.6,-,N/A,,Clear,20,2013-06-22 14:35:00
10:55 AM,82.4,77.0,84,30.16,10.0,ENE,4.6,-,N/A,,Clear,70,2013-06-22 14:55:00
11:15 AM,84.2,77.0,79,30.16,10.0,NNE,5.8,-,N/A,,Scattered Clouds,30,2013-06-22 15:15:00
11:35 AM,84.2,77.0,79,30.16,10.0,NNE,4.6,-,N/A,,Scattered Clouds,30,2013-06-22 15:35:00
11:55 AM,82.4,75.2,79,30.16,10.0,NE,9.2,-,N/A,Thunderstorm,Thunderstorm,50,2013-06-22 15:55:00
12:15 PM,80.6,75.2,84,30.17,3.0,ESE,11.5,-,N/A,Thunderstorm,Thunderstorm,110,2013-06-22 16:15:00
12:35 PM,78.8,75.2,89,30.17,1.5,East,6.9,-,N/A,,Overcast,90,2013-06-22 16:35:00
12:55 PM,78.8,77.0,94,30.17,10.0,ENE,4.6,-,N/A,Thunderstorm,Overcast,60,2013-06-22 16:55:00
1:15 PM,80.6,77.0,89,30.17,10.0,ENE,6.9,-,N/A,,Overcast,70,2013-06-22 17:15:00
1:35 PM,80.6,77.0,89,30.16,10.0,NNE,3.5,-,N/A,Thunderstorm,Overcast,20,2013-06-22 17:35:00
1:55 PM,78.8,77.0,94,30.17,10.0,ENE,5.8,-,N/A,Thunderstorm,Mostly Cloudy,70,2013-06-22 17:55:00
2:15 PM,78.8,77.0,94,30.16,10.0,Calm,Calm,-,N/A,Thunderstorm,Thunderstorm,0,2013-06-22 18:15:00
2:35 PM,78.8,77.0,94,30.15,10.0,Calm,Calm,-,N/A,Thunderstorm,Overcast,0,2013-06-22 18:35:00
2:55 PM,80.6,77.0,89,30.13,10.0,ENE,9.2,-,N/A,Thunderstorm,Overcast,60,2013-06-22 18:55:00
3:15 PM,80.6,77.0,89,30.15,10.0,NNE,4.6,-,N/A,Thunderstorm,Overcast,20,2013-06-22 19:15:00
3:35 PM,80.6,77.0,89,30.14,10.0,NE,5.8,-,N/A,Thunderstorm,Mostly Cloudy,40,2013-06-22 19:35:00
3:55 PM,80.6,77.0,89,30.14,10.0,Calm,Calm,-,N/A,,Scattered Clouds,0,2013-06-22 19:55:00
4:15 PM,80.6,77.0,89,30.15,10.0,East,3.5,-,N/A,,Scattered Clouds,80,2013-06-22 20:15:00
4:35 PM,80.6,77.0,89,30.14,10.0,ENE,3.5,-,N/A,,Mostly Cloudy,60,2013-06-22 20:35:00
4:55 PM,80.6,77.0,89,30.15,10.0,Calm,Calm,-,N/A,,Overcast,0,2013-06-22 20:55:00
5:15 PM,80.6,75.2,84,30.14,10.0,Calm,Calm,-,N/A,,Mostly Cloudy,0,2013-06-22 21:15:00
5:35 PM,82.4,77.0,84,30.12,10.0,ESE,5.8,-,N/A,,Scattered Clouds,110,2013-06-22 21:35:00
5:55 PM,80.6,75.2,84,30.12,10.0,East,5.8,-,N/A,,Scattered Clouds,100,2013-06-22 21:55:00
6:15 PM,82.4,75.2,79,30.12,10.0,East,3.5,-,N/A,,Clear,80,2013-06-22 22:15:00
6:35 PM,80.6,73.4,79,30.12,10.0,Calm,Calm,-,N/A,,Clear,0,2013-06-22 22:35:00
6:55 PM,82.4,75.2,79,30.11,10.0,Calm,Calm,-,N/A,,Clear,0,2013-06-22 22:55:00
7:15 PM,80.6,75.2,84,30.11,10.0,ENE,3.5,-,N/A,,Clear,60,2013-06-22 23:15:00
7:35 PM,80.6,77.0,89,30.12,10.0,Calm,Calm,-,N/A,Thunderstorm,Thunderstorm,0,2013-06-22 23:35:00
7:55 PM,80.6,73.4,79,30.12,10.0,Calm,Calm,-,N/A,Thunderstorm,Thunderstorm,0,2013-06-22 23:55:00
8:15 PM,78.8,77.0,94,30.13,10.0,Calm,Calm,-,N/A,,Clear,0,2013-06-23 00:15:00
8:35 PM,78.8,77.0,94,30.13,10.0,SE,3.5,-,N/A,,Clear,130,2013-06-23 00:35:00
8:55 PM,80.6,75.2,84,30.13,10.0,SSE,3.5,-,N/A,,Clear,150,2013-06-23 00:55:00
9:15 PM,78.8,75.2,89,30.13,10.0,Calm,Calm,-,N/A,,Clear,0,2013-06-23 01:15:00
9:35 PM,80.6,77.0,89,30.13,10.0,ESE,4.6,-,N/A,,Clear,120,2013-06-23 01:35:00
9:55 PM,78.8,75.2,89,30.14,10.0,Calm,Calm,-,N/A,,Clear,0,2013-06-23 01:55:00
10:15 PM,78.8,75.2,89,30.14,10.0,ESE,3.5,-,N/A,,Clear,120,2013-06-23 02:15:00
10:35 PM,80.6,75.2,84,30.14,10.0,SE,3.5,-,N/A,,Clear,130,2013-06-23 02:35:00
10:55 PM,80.6,75.2,84,30.13,10.0,Calm,Calm,-,N/A,,Clear,0,2013-06-23 02:55:00
11:15 PM,77.0,73.4,89,30.14,10.0,Calm,Calm,-,N/A,,Clear,0,2013-06-23 03:15:00
11:35 PM,75.2,73.4,94,30.14,5.0,Calm,Calm,-,N/A,,Clear,0,2013-06-23 03:35:00
11:55 PM,75.2,73.4,94,30.15,10.0,Calm,Calm,-,N/A,,Clear,0,2013-06-23 03:55:00